Flight Track Log - Related Links

Times and Time Zones

All times are in EDT time to prevent confusion due to time zone crossing. See the SWA554 flight status page for this flight to view local times or setup timezone preferences in your user account.

Time Position Orientation Groundspeed Altitude Reporting Facility
EDT Latitude Longitude Course Direction KTS MPH feet Rate Location/Type
Tue 09:21:20 AM 36.0986 -115.1528 47° Northeast 140 161 3,400  Level Los Angeles Center
Tue 09:22:15 AM 36.1306 -115.1103 47° Northeast 203 234 5,700 2,609 Climbing Los Angeles Center
Tue 09:22:52 AM 36.1350 -115.0600 84° East 225 259 7,400 3,443 Climbing Los Angeles Center
Tue 09:23:16 AM 36.1394 -115.0222 82° East 264 304 9,200 4,131 Climbing Los Angeles Center
Tue 09:23:53 AM 36.1433 -114.9678 85° East 266 306 11,600 3,980 Climbing Los Angeles Center
Tue 09:24:54 AM 36.1539 -114.8650 83° East 297 342 15,700 3,756 Climbing Los Angeles Center
Tue 09:25:56 AM 36.1703 -114.7556 79° East 320 368 19,300 3,393 Climbing Los Angeles Center
Tue 09:26:56 AM 36.1658 -114.6283 92° East 379 436 22,600 3,400 Climbing Los Angeles Center
Tue 09:27:56 AM 36.1228 -114.5028 113° Southeast 394 453 26,100 3,124 Climbing Los Angeles Center
Tue 09:28:57 AM 36.0844 -114.3831 112° Southeast 377 434 28,900 1,392 Climbing Los Angeles Center
Tue 09:30:01 AM 36.0428 -114.2583 112° Southeast 388 447 29,000 48 Climbing Los Angeles Center
Tue 09:31:02 AM 35.9681 -114.1289 125° Southeast 388 447 29,000  Level Los Angeles Center
Tue 09:32:02 AM 35.8942 -114.0286 132° Southeast 393 452 29,000  Level Los Angeles Center
Tue 09:33:03 AM 35.8194 -113.9300 133° Southeast 392 451 29,000  Level Los Angeles Center
Tue 09:34:03 AM 35.7458 -113.8319 133° Southeast 391 450 29,000  Level Los Angeles Center
Tue 09:35:04 AM 35.6781 -113.7425 133° Southeast 407 468 29,000  Level Los Angeles Center
Tue 09:36:07 AM 35.5872 -113.6236 133° Southeast 396 456 29,000  Level Los Angeles Center
Tue 09:37:07 AM 35.5139 -113.5264 133° Southeast 390 449 29,000  Level Los Angeles Center
Tue 09:38:08 AM 35.4394 -113.4286 133° Southeast 394 453 29,000  Level Los Angeles Center
Tue 09:39:09 AM 35.3642 -113.3311 133° Southeast 395 455 29,000  Level Los Angeles Center
Tue 09:40:13 AM 35.2917 -113.2369 133° Southeast 393 452 29,000  Level Los Angeles Center
Tue 09:41:13 AM 35.2172 -113.1375 132° Southeast 395 455 29,000  Level Los Angeles Center
Tue 09:42:13 AM 35.1433 -113.0414 133° Southeast 396 456 29,000  Level Los Angeles Center
Tue 09:43:16 AM 35.0531 -112.9281 134° Southeast 396 456 29,000  Level Los Angeles Center
Tue 09:44:13 AM 34.9772 -112.8311 134° Southeast 397 457 29,000  Level Albuquerque Center
Tue 09:45:14 AM 34.9019 -112.7342 133° Southeast 396 456 29,000 -537 Level Albuquerque Center
Tue 09:46:16 AM 34.8272 -112.6383 134° Southeast 393 452 27,900 -984 Descending Albuquerque Center
Tue 09:47:16 AM 34.7514 -112.5425 134° Southeast 394 453 27,000 -934 Descending Albuquerque Center
Tue 09:48:18 AM 34.6733 -112.4483 135° Southeast 396 456 26,000 -1,610 Descending Albuquerque Center
Tue 09:49:19 AM 34.5867 -112.3658 142° Southeast 396 456 23,700 -2,459 Descending Albuquerque Center
Tue 09:50:20 AM 34.4958 -112.2794 142° Southeast 397 457 21,000 -1,820 Descending Albuquerque Center
Tue 09:51:21 AM 34.4031 -112.2183 151° Southeast 386 444 20,000 -537 Descending Albuquerque Center
Tue 09:52:23 AM 34.2986 -112.1914 168° South 384 442 19,900 -1,268 Descending Albuquerque Center
Tue 09:53:24 AM 34.1983 -112.1653 168° South 373 429 17,400 -2,016 Descending Albuquerque Center
Tue 09:54:25 AM 34.0839 -112.1353 168° South 354 407 15,800 -1,561 Descending Albuquerque Center
Tue 09:55:27 AM 33.9939 -112.1122 168° South 336 387 14,200 -1,561 Descending Albuquerque Center
Tue 09:56:28 AM 33.9061 -112.0897 168° South 328 377 12,600 -1,377 Descending Albuquerque Center
Tue 09:57:29 AM 33.8231 -112.0689 168° South 311 358 11,400 -1,122 Descending Albuquerque Center
Tue 09:58:31 AM 33.7458 -112.0503 169° South 289 333 10,300 -683 Descending Albuquerque Center
Tue 09:59:32 AM 33.6739 -112.0378 172° South 265 305 10,000 -195 Descending Albuquerque Center
Tue 10:00:34 AM 33.6047 -112.0258 172° South 253 291 9,900 -683 Descending Albuquerque Center
Tue 10:01:35 AM 33.5333 -111.9778 151° Southeast 268 308 8,600 -1,230 Descending Albuquerque Center
Tue 10:02:36 AM 33.5278 -111.8944 95° East 261 300 7,400 -829 Descending Albuquerque Center
Tue 10:03:38 AM 33.5267 -111.8136 91° East 246 283 6,900 -634 Descending Albuquerque Center
Tue 10:04:39 AM 33.4794 -111.7922 159° South 197 227 6,100 -1,024 Descending Albuquerque Center
Tue 10:05:41 AM 33.4464 -111.8239 219° Southwest 165 190 4,800 -1,463 Descending Albuquerque Center
Tue 10:06:42 AM 33.4411 -111.8769 263° West 167 192 3,100 -1,268 Descending Albuquerque Center
Tue 10:07:44 AM 33.4406 -111.9308 269° West 163 188 2,200 -780 Descending Albuquerque Center
Tue 10:08:45 AM 33.4411 -111.9733 271° West 131 151 1,500 -689 Descending Albuquerque Center

Login

Don't have an account? Register now (free) for customized features, flight alerts, and more!